Regional Weather Roundup
Issued by NWS

Home | Current Version | Previous Version | Text Only | Print | Product List | Glossary On
Versions: 1 2 3 4 5 6 7 8 9 10 11 12 13 14 15 16 17 18 19 20 21 22 23 24 25 26 27 28 29 30 31 32 33 34 35 36 37 38 39 40 41 42 43 44 45 46 47 48 49 50
000
ASUS44 KFWD 291515
RWRTX
NORTH TEXAS HOURLY WEATHER ROUNDUP
NATIONAL WEATHER SERVICE FORT WORTH TX
1000 AM CDT WED MAR 29 2017

NOTE: "FAIR" INDICATES FEW OR NO CLOUDS BELOW 12,000 FEET WITH NO
SIGNIFICANT WEATHER AND/OR OBSTRUCTIONS TO VISIBILITY.

TXZ118-119-291600-
DALLAS/FORT WORTH METROPLEX

CITY           SKY/WX    TMP DP  RH WIND       PRES   REMARKS
DFW AIRPORT    MOSUNNY   67  60  78 S18G25    29.70R
DALLAS LOVE    MOSUNNY   66  59  78 S16       29.72R
FTW MEACHAM    SUNNY     65  58  78 S13       29.71R
DAL-EXECUTIVE  MOSUNNY   64  60  87 S8G16     29.72R
FTW-ALLIANCE   MOSUNNY   64  59  83 S16G24    29.70R
FTW-NAS-JRB    MOSUNNY   65  59  81 S21       29.72R
FTW-SPINKS     SUNNY     64  61  88 S15       29.75R
ARLINGTON      SUNNY     65  59  81 S13       29.72R
GRAND PRAIRIE  SUNNY     64  57  77 S12G21    29.74R
ADDISON        MOSUNNY   64  57  77 S12G24    29.72R
MESQUITE       SUNNY     64  61  88 S14G22    29.73R
LANCASTER      MOSUNNY   63  59  88 S14       29.74R
$$

TXZ091>094-102>105-117-120-121-131>134-291600-
NORTH CENTRAL TEXAS

CITY           SKY/WX    TMP DP  RH WIND       PRES   REMARKS
SHRMAN/DENISON CLOUDY    63  59  87 S18G24    29.71R
GAINESVILLE    CLOUDY    60  58  91 SW16      29.71R
BOWIE          CLOUDY    62  60  93 S12       29.68S
BRIDGEPORT     SUNNY     63  57  82 SW12G22   29.70S
DECATUR        MOSUNNY   62  57  84 SW12G22   29.69R
DENTON         MOSUNNY   64  60  87 S17G24    29.71R
MCKINNEY       CLOUDY    64  61  90 S16       29.71R
BONHAM         CLOUDY    61  57  88 S15G21    29.72R
GREENVILLE       N/A     63  59  88 S14       29.74R
ROCKWALL       CLOUDY    64  60  87 S17G25    29.73R
TERRELL        CLOUDY    64  60  87 S12       29.74R
WAXAHACHIE     MOSUNNY   63  62  94 S10G22    29.75R
CLEBURNE       SUNNY     64  63  94 SW12G17   29.76R
GRANBURY       SUNNY     66  56  71 S12       29.75R
$$

TXZ083>090-098>101-113>116-127>130-139>142-154-155-291600-
WESTERN NORTH TEXAS

CITY           SKY/WX    TMP DP  RH WIND       PRES   REMARKS
WICHITA FALLS  MOSUNNY   60  56  86 S13       29.66S
WF-KICKAPOO    MOSUNNY   61  56  85 S15G21    29.68R
VERNON         CLOUDY    56  51  82 N5        29.70R
ABILENE        SUNNY     58  47  66 SW16      29.72R
ABILENE-DYESS  SUNNY     59  48  66 NW12G18   29.71R
GRAHAM         MOSUNNY   61  60  95 S9        29.68S
BRECKENRIDGE   SUNNY     64  48  56 SW13G18   29.71R
CISCO          SUNNY     59  52  77 S9        29.73S
RANGER         SUNNY     59  54  82 S10       29.74S
MINERAL WELLS  SUNNY     63  56  78 S15       29.71R
STEPHENVILLE   SUNNY     62  55  79 SW8       29.78R
COMANCHE       SUNNY     64  51  62 SW7       29.77R
BROWNWOOD      SUNNY     63  48  59 SW9       29.78R
COLEMAN        SUNNY     60  47  61 SW13      29.76R
$$

TXZ143>147-156>162-174-175-291600-
CENTRAL TEXAS

CITY           SKY/WX    TMP DP  RH WIND       PRES   REMARKS
WACO           SUNNY     65  62  90 S14       29.76S
WACO-TSTC      SUNNY     64  61  88 SW13      29.77
WACO-MCGREGOR  SUNNY     66  62  87 S13       29.77S
HILLSBORO      MOSUNNY   65  61  88 S17       29.74F
CORSICANA      CLOUDY    65  61  87 S12       29.76S
MEXIA          CLOUDY    63  61  93 S12G17    29.76R
HEARNE         CLOUDY    66  64  93 SE7       29.79R
CAMERON        CLOUDY    69  63  82 SW9       29.78R
TEMPLE         MOSUNNY   64  63  94 S14       29.78S
KILLEEN        MOSUNNY   62  60  91 S7        29.78S
KILLEEN-SKYLRK CLOUDY    63  60  90 S7        29.79S
FORT HOOD      MOSUNNY   62  59  90 S8        29.76S
GATESVILLE     SUNNY     64  57  77 S9        29.80R
HAMILTON       SUNNY     65  52  61 SW14      29.78R
LAMPASAS       SUNNY     64  57  80 S6        29.78R
$$

TXZ095>097-106>112-122>126-135>138-148>153-164>167-291600-
EAST TEXAS

CITY           SKY/WX    TMP DP  RH WIND       PRES   REMARKS
PARIS          CLOUDY    63  57  82 SE16      29.73R
SULPHUR SPRNGS CLOUDY    63  60  91 SE14G23   29.75F
MOUNT PLEASANT CLOUDY    62  61  96 S6        29.81F
GILMER         CLOUDY    62  59  91 SW6       29.80R
MINEOLA        PTSUNNY   63  61  94 SE7       29.77R
TYLER          PTSUNNY   63  63 100 S7        29.79R
LONGVIEW       LGT RAIN  63  61  93 SE12G21   29.75F
MARSHALL       MOSUNNY   63  60  91 SE5       29.83F
ATHENS         CLOUDY    61  61 100 S6        29.76S
PALESTINE      CLOUDY    63  62  96 CALM      29.79R
JACKSONVILLE   CLOUDY    63  61  94 S8        29.81R
HENDERSON      CLOUDY    62  61  94 SE17G24   29.79F
NACOGDOCHES    CLOUDY    64  61  88 S8        29.87R
LUFKIN         LGT RAIN  64  63  96 S3        29.90R
$$

SUPPLEMENTAL OBSERVATIONS (CENTRAL)

CITY           SKY/WX    TMP DP  RH WIND       PRES   REMARKS
DENISON DAM      N/A     63  57  82 S10         N/A
CADDO GRASSLND   N/A     63  59  88 S9          N/A
PAT MAYSE LAKE   N/A     61  59  94 SE12        N/A
GREENVILLE       N/A     63  57  82 S8G16       N/A
CEDAR HILL       N/A     66  59  77 S8G17       N/A
ATHENS           N/A     64  59  82 SE8         N/A
LAKE LIMESTONE   N/A     66  61  82 S7          N/A
MCGREGOR         N/A     64  63  94 S14         N/A
TEMPLE           N/A     66  63  88 S6          N/A
$$

SUPPLEMENTAL OBSERVATIONS (WEST)

CITY           SKY/WX    TMP DP  RH WIND       PRES   REMARKS
MILLERS CREEK    N/A     59  50  72 SW15        N/A
POSSUM KINGDOM   N/A     63  55  77 S12         N/A
LBJ GRASSLAND    N/A     64  59  82 S7          N/A
GRANBURY         N/A     66  55  68 S13         N/A
COMANCHE         N/A     64  46  52 SW10        N/A
HAMBY            N/A     61  48  63 SW13        N/A
IVIE RESERVOIR   N/A     63  43  48 W13         N/A
COLORADO BEND    N/A     64  54  68 SW6         N/A
$$

SUPPLEMENTAL OBSERVATIONS (EAST)

CITY           SKY/WX    TMP DP  RH WIND       PRES   REMARKS
CLARKSVILLE      N/A     63  59  88 SE14        N/A
TEXARKANA        N/A    N/A N/A N/A SE5G14      N/A
LINDEN           N/A     61  59  94 E8          N/A
CADDO LAKE       N/A    N/A N/A N/A SE5         N/A
GILMER           N/A     64  61  88 SW6G20      N/A
HENDERSON        N/A     64  61  88 S10G26      N/A
LUFKIN           N/A     64  61  88 MISG        N/A
N SABINE NF      N/A     72  66  83 MISG        N/A
S SABINE NF      N/A     73  66  78 W3          N/A
$$

SUPPLEMENTAL OBSERVATIONS ARE A COLLECTION OF AUTOMATED INSTRUMENTS
THAT ARE MAINTAINED BY A VARIETY OF FEDERAL AND STATE AGENCIES.
CERTAIN ELEMENTS...SUCH AS HUMIDITY VALUES AND SUSTAINED WIND
SPEEDS...MAY BE APPROXIMATED.





USA.gov is the U.S. government's official web portal to all federal, state and local government web resources and services.